sat.trackr.live / text

‹ back to catalog

STARLINK-33705

NORAD 63651 · 2025-083T

PAYLOAD ACTIVE UNKNOWN

§ Identity

Operator
Country
US
Launch date
2025-04-25
Launch site
AFETR
Launch vehicle
Mass (kg)
RCS (m²)

Purposes: comms

External: N2YO · Heavens-Above · Gunter

§ Orbital elements

Epoch: 2026-05-25T02:21:27.012384Z

Period
94.27 min
Inclination
42.9942°
Eccentricity
0.0000602
Mean motion
15.27577754 rev/d
Perigee alt
482.6 km
Apogee alt
483.5 km
Semi-major
6,861.2 km
B*
3.1286e-4
RAAN
293.5946°
Arg perigee
342.3731°
Mean anomaly
17.7100°
Rev number
6,178

§ Raw data

STARLINK-337051 63651U 25083T   26145.09822931  .00008357  00000+0  31286-3 0  99962 63651  42.9942 293.5946 0000602 342.3731  17.7100 15.27577754 61780

JSON: /api/v1/satellites/63651 · /tle

For live sub-satellite position, see the globe view (requires WebGL).

§ Visibility from observer

Set your observer location to see the next 7 days of passes ≥ 10°. The values pass through the URL so the page stays shareable.

No JS? Fill the form by hand. The geolocation button needs JavaScript.